TimeCST,TemperatureF,Dew PointF,Humidity,Sea Level PressureIn,VisibilityMPH,Wind Direction,Wind SpeedMPH,Gust SpeedMPH,PrecipitationIn,Events,Conditions,WindDirDegrees,DateUTC
12:36 AM,-2.2,-5.8,85,30.32,10.0,Calm,Calm,-,N/A,,Clear,0,2013-03-02 06:36:00
12:56 AM,-0.4,-4.0,85,30.32,10.0,Calm,Calm,-,N/A,,Clear,0,2013-03-02 06:56:00
1:16 AM,-4.0,-7.6,85,30.31,10.0,Calm,Calm,-,N/A,,Clear,0,2013-03-02 07:16:00
1:36 AM,-4.0,-7.6,85,30.31,10.0,Calm,Calm,-,N/A,,Clear,0,2013-03-02 07:36:00
1:56 AM,-5.8,-7.6,92,30.32,10.0,Calm,Calm,-,N/A,,Clear,0,2013-03-02 07:56:00
2:16 AM,-4.0,-7.6,85,30.32,10.0,Calm,Calm,-,N/A,,Clear,0,2013-03-02 08:16:00
2:36 AM,-4.0,-7.6,85,30.32,10.0,Calm,Calm,-,N/A,,Clear,0,2013-03-02 08:36:00
2:56 AM,-5.8,-9.4,84,30.32,10.0,Calm,Calm,-,N/A,,Clear,0,2013-03-02 08:56:00
3:16 AM,-7.6,-11.2,84,30.31,10.0,Calm,Calm,-,N/A,,Clear,0,2013-03-02 09:16:00
3:36 AM,-7.6,-11.2,84,30.31,10.0,Calm,Calm,-,N/A,,Clear,0,2013-03-02 09:36:00
3:56 AM,-5.8,-9.4,84,30.31,10.0,Calm,Calm,-,N/A,,Clear,0,2013-03-02 09:56:00
4:16 AM,-7.6,-11.2,84,30.30,10.0,Calm,Calm,-,N/A,,Clear,0,2013-03-02 10:16:00
4:36 AM,-9.4,-13.0,84,30.30,10.0,Calm,Calm,-,N/A,,Clear,0,2013-03-02 10:36:00
4:56 AM,-9.4,-13.0,84,30.30,10.0,Calm,Calm,-,N/A,,Clear,0,2013-03-02 10:56:00
5:16 AM,-9.4,-14.8,77,30.31,10.0,Calm,Calm,-,N/A,,Clear,0,2013-03-02 11:16:00
5:36 AM,-9.4,-14.8,77,30.31,10.0,Calm,Calm,-,N/A,,Clear,0,2013-03-02 11:36:00
5:56 AM,-9.4,-14.8,77,30.31,10.0,Calm,Calm,-,N/A,,Clear,0,2013-03-02 11:56:00
6:16 AM,-11.2,-14.8,84,30.31,10.0,Calm,Calm,-,N/A,,Clear,0,2013-03-02 12:16:00
6:36 AM,-11.2,-14.8,84,30.31,10.0,Calm,Calm,-,N/A,,Clear,0,2013-03-02 12:36:00
6:56 AM,-11.2,-16.6,77,30.31,10.0,Calm,Calm,-,N/A,,Clear,0,2013-03-02 12:56:00
7:16 AM,-11.2,-16.6,77,30.30,10.0,Calm,Calm,-,N/A,,Clear,0,2013-03-02 13:16:00
7:36 AM,-9.4,-14.8,77,30.30,10.0,Calm,Calm,-,N/A,,Clear,0,2013-03-02 13:36:00
7:56 AM,-7.6,-11.2,84,30.30,10.0,Calm,Calm,-,N/A,,Clear,0,2013-03-02 13:56:00
8:16 AM,-4.0,-7.6,85,30.29,10.0,Calm,Calm,-,N/A,,Clear,0,2013-03-02 14:16:00
8:36 AM,1.4,-0.4,92,30.29,10.0,Calm,Calm,-,N/A,,Clear,0,2013-03-02 14:36:00
8:56 AM,6.8,3.2,85,30.28,10.0,Calm,Calm,-,N/A,,Clear,0,2013-03-02 14:56:00
9:16 AM,12.2,6.8,79,30.27,10.0,Calm,Calm,-,N/A,,Clear,0,2013-03-02 15:16:00
9:36 AM,15.8,8.6,73,30.27,7.0,Calm,Calm,-,N/A,,Clear,0,2013-03-02 15:36:00
9:56 AM,17.6,6.8,63,30.27,10.0,SSW,3.5,-,N/A,,Clear,200,2013-03-02 15:56:00
10:16 AM,19.4,6.8,58,30.27,10.0,WSW,3.5,-,N/A,,Clear,250,2013-03-02 16:16:00
10:36 AM,19.4,8.6,63,30.27,10.0,Calm,Calm,-,N/A,,Clear,0,2013-03-02 16:36:00
10:56 AM,21.2,8.6,58,30.26,10.0,Calm,Calm,-,N/A,,Clear,0,2013-03-02 16:56:00
11:16 AM,23.0,8.6,54,30.25,10.0,WSW,3.5,-,N/A,,Clear,250,2013-03-02 17:16:00
11:36 AM,24.8,6.8,46,30.25,10.0,SE,3.5,-,N/A,,Clear,140,2013-03-02 17:36:00
11:56 AM,26.6,8.6,47,30.25,10.0,SSE,4.6,-,N/A,,Clear,150,2013-03-02 17:56:00
12:36 PM,26.6,6.8,43,30.23,10.0,SSE,3.5,-,N/A,,Clear,150,2013-03-02 18:36:00
12:56 PM,26.6,6.8,43,30.21,10.0,SSE,5.8,-,N/A,,Mostly Cloudy,150,2013-03-02 18:56:00
1:16 PM,26.6,6.8,43,30.21,10.0,SE,6.9,-,N/A,,Mostly Cloudy,140,2013-03-02 19:16:00
1:36 PM,26.6,6.8,43,30.20,10.0,SE,4.6,-,N/A,,Scattered Clouds,140,2013-03-02 19:36:00
1:56 PM,28.4,6.8,40,30.19,10.0,SSE,4.6,-,N/A,,Overcast,150,2013-03-02 19:56:00
2:16 PM,28.4,6.8,40,30.19,10.0,SSE,5.8,-,N/A,,Overcast,150,2013-03-02 20:16:00
2:36 PM,28.4,6.8,40,30.18,10.0,SSE,3.5,-,N/A,,Mostly Cloudy,160,2013-03-02 20:36:00
2:56 PM,28.4,6.8,40,30.18,10.0,South,3.5,-,N/A,,Scattered Clouds,180,2013-03-02 20:56:00
3:16 PM,28.4,3.2,34,30.18,10.0,Calm,Calm,-,N/A,,Scattered Clouds,0,2013-03-02 21:16:00
3:36 PM,28.4,6.8,40,30.17,10.0,SE,4.6,-,N/A,,Mostly Cloudy,130,2013-03-02 21:36:00
3:56 PM,28.4,5.0,37,30.17,10.0,SSE,3.5,-,N/A,,Overcast,150,2013-03-02 21:56:00
4:16 PM,28.4,5.0,37,30.16,10.0,South,3.5,-,N/A,,Overcast,170,2013-03-02 22:16:00
4:36 PM,28.4,5.0,37,30.16,10.0,SSE,3.5,-,N/A,,Overcast,160,2013-03-02 22:36:00
4:56 PM,28.4,3.2,34,30.16,10.0,South,4.6,-,N/A,,Mostly Cloudy,170,2013-03-02 22:56:00
5:16 PM,28.4,5.0,37,30.15,10.0,SSE,4.6,-,N/A,,Overcast,160,2013-03-02 23:16:00
5:37 PM,26.6,6.8,43,30.16,10.0,South,3.5,-,N/A,,Overcast,180,2013-03-02 23:37:00
5:56 PM,26.6,6.8,43,30.15,10.0,SSW,5.8,-,N/A,,Overcast,200,2013-03-02 23:56:00
6:16 PM,26.6,6.8,43,30.16,10.0,SSW,3.5,-,N/A,,Overcast,200,2013-03-03 00:16:00
6:36 PM,26.6,6.8,43,30.16,10.0,South,3.5,-,N/A,,Overcast,190,2013-03-03 00:36:00
6:56 PM,26.6,6.8,43,30.16,10.0,Calm,Calm,-,N/A,,Overcast,0,2013-03-03 00:56:00
7:16 PM,24.8,8.6,50,30.15,10.0,SSE,3.5,-,N/A,,Overcast,160,2013-03-03 01:16:00
7:36 PM,24.8,8.6,50,30.14,10.0,South,3.5,-,N/A,,Overcast,170,2013-03-03 01:36:00
7:56 PM,24.8,8.6,50,30.14,10.0,SSE,3.5,-,N/A,,Overcast,150,2013-03-03 01:56:00
8:16 PM,24.8,8.6,50,30.13,10.0,SSE,3.5,-,N/A,,Overcast,160,2013-03-03 02:16:00
8:36 PM,24.8,8.6,50,30.13,10.0,SSE,4.6,-,N/A,,Overcast,150,2013-03-03 02:36:00
8:56 PM,24.8,10.4,54,30.13,10.0,SSE,3.5,-,N/A,,Overcast,150,2013-03-03 02:56:00
9:16 PM,24.8,10.4,54,30.14,10.0,SE,3.5,-,N/A,,Overcast,140,2013-03-03 03:16:00
9:36 PM,24.8,10.4,54,30.13,10.0,SSE,4.6,-,N/A,,Overcast,150,2013-03-03 03:36:00
9:56 PM,24.8,10.4,54,30.12,10.0,SSE,4.6,-,N/A,,Overcast,160,2013-03-03 03:56:00
10:16 PM,24.8,10.4,54,30.12,10.0,SSE,3.5,-,N/A,,Overcast,160,2013-03-03 04:16:00
10:36 PM,24.8,10.4,54,30.12,10.0,SSE,5.8,-,N/A,,Overcast,160,2013-03-03 04:36:00
10:56 PM,24.8,8.6,50,30.11,10.0,South,4.6,-,N/A,,Overcast,170,2013-03-03 04:56:00
11:16 PM,23.0,8.6,54,30.10,10.0,SSE,3.5,-,N/A,,Overcast,160,2013-03-03 05:16:00
11:36 PM,23.0,8.6,54,30.10,10.0,SSE,5.8,-,N/A,,Overcast,160,2013-03-03 05:36:00
11:56 PM,21.2,8.6,58,30.10,10.0,SSE,5.8,-,N/A,,Overcast,150,2013-03-03 05:56:00